STAR ONE C3             
1 38991U 12062A   19260.48311417 -.00000254  00000-0  00000+0 0  9999
2 38991   0.0593 100.5692 0002349  86.1532 268.3522  1.00273369 25146
EUTELSAT 21B            
1 38992U 12062B   19260.26992057  .00000124  00000-0  00000+0 0  9996
2 38992   0.0672   6.9430 0002322 163.4328 304.2830  1.00271240 25156
ARIANE 5 R/B            
1 38993U 12062C   19259.41238627  .00000789  00000-0  28035-3 0  9997
2 38993   2.3233 143.3345 7124581 250.0445  25.4095  2.48028753 60053